User: anonymous   Login
Location: Unspecified
(0.0000°N, 0.0000°E)
Time: 20:38:49
(UTC+01:00)
Language:

YAOGAN 3 - Orbit

View from above orbital plane
View from above orbital plane
View from above satellite
View from above satellite

Ground track
Ground track

The orbit data is extracted from the following two-line orbital elements,

1 32289U 07055A   15032.39870468  .00000586  00000-0  83878-4 0   120
2 32289 097.9571 027.7326 0000944 096.8727 263.2597 14.80245258390473
Epoch (UTC): 01 February 2015 09:34:08
Eccentricity: 0.0000944
inclination: 97.9571°
perigee height: 628 km
apogee height: 629 km
right ascension of ascending node: 27.7326°
argument of perigee: 96.8727°
revolutions per day: 14.80245258
mean anomaly at epoch: 263.2597°
orbit number at epoch: 39047

The dashed part of the orbit path shows where the satellite is in the earth's shadow,  

DLR